Home   Weather   Bismarck   Past weeks
Flag for USA

Past Weather in Bismarck, North Dakota, USA — Yesterday and Last 2 Weeks

Now
37 °F

Sunny.


Feels Like: 30 °F
Forecast: 46 / 25 °F
Wind: 9 mph from Southeast

Location: Bismarck Municipal Airport

Current Time: Mar 22, 2019 at 7:36:09 pm

Latest Report: Mar 22, 2019 at 6:52 pm


Visibility: 10 mi

Pressure: 30.19 "Hg (28.33 "Hg at 513m altitude)

Humidity: 73%

Dew Point: 29 °F

Location of BismarckLocation

Past Weather in Bismarck — Graph

°F

Bismarck Temperature Yesterday

Maximum temperature yesterday: 48 °F (at 1:52 pm)
Minimum temperature yesterday: 23 °F (at 4:32 am)
Average temperature yesterday: 32 °F

High & Low Weather Summary for the Past Weeks

 TemperatureHumidityPressure
High48 °F (Mar 21, 1:52 pm)100% (Mar 12, 11:11 pm)30.49 "Hg (Mar 12, 11:11 pm)
Low-9 °F (Mar 11, 12:52 am)54% (Mar 18, 11:52 am)29.63 "Hg (Mar 12, 11:00 pm)
Average24 °F82%30.11 "Hg
* Reported Mar 7 4:52 pm — Mar 22 5:52 pm, Bismarck. Weather by CustomWeather, © 2019

Note: Actual official high and low records may vary slightly from our data, if they occured in-between our weather recording intervals... More about our weather records

Advertising

Bismarck Weather History for the Previous 24 Hours

Scroll right to see more
 ConditionsComfort  
Time TempWeatherWind HumidityBarometerVisibility
5:52 pm
Fri, Mar 22
38 °FSunny.13 mph68%30.19 "Hg10 mi
4:52 pm39 °FSunny.10 mph67%30.21 "Hg10 mi
3:52 pm40 °FSunny.10 mph60%30.22 "Hg10 mi
2:52 pm38 °FSunny.8 mph68%30.25 "Hg10 mi
1:52 pm37 °FSunny.10 mph70%30.26 "Hg10 mi
12:52 pm36 °FSunny.9 mph73%30.28 "Hg10 mi
11:52 am31 °FSunny.3 mph85%30.30 "Hg10 mi
10:52 am26 °FSunny.6 mph92%30.30 "Hg10 mi
9:52 am21 °FIce fog.3 mph96%30.32 "Hg6 mi
9:38 am21 °FIce fog.3 mph96%30.24 "Hg6 mi
9:14 am19 °FIce fog.3 mph100%30.24 "Hg0 mi
8:59 am19 °FIce fog.5 mph96%30.25 "Hg5 mi
8:33 am19 °FIce fog.5 mph96%30.25 "Hg4 mi
8:14 am18 °FIce fog.3 mph96%30.25 "Hg0 mi
7:52 am19 °FIce fog.3 mph96%30.31 "Hg0 mi
7:10 am19 °FIce fog.3 mph96%30.24 "Hg0 mi
7:00 am20 °FIce fog.3 mph92%30.24 "Hg1 mi
5:52 am21 °FIce fog.No wind96%30.30 "Hg0 mi
5:23 am22 °FIce fog.5 mph92%30.24 "Hg0 mi
5:10 am21 °FIce fog.5 mph92%30.24 "Hg0 mi
4:52 am22 °FIce fog.7 mph89%30.29 "Hg1 mi
4:40 am22 °FIce fog.7 mph89%30.24 "Hg0 mi
4:37 am22 °FIce fog.6 mph89%30.24 "Hg1 mi
3:59 am23 °FIce fog.3 mph92%30.25 "Hg4 mi
3:23 am24 °FIce fog.5 mph91%30.25 "Hg2 mi
3:06 am24 °FIce fog.6 mph88%30.25 "Hg4 mi
2:43 am23 °FIce fog.3 mph88%30.25 "Hg1 mi
1:52 am26 °FIce fog.5 mph92%30.29 "Hg5 mi
12:52 am28 °FClear.No wind93%30.29 "Hg7 mi
11:52 pm
Thu, Mar 21
29 °FClear.No wind93%30.29 "Hg7 mi
10:52 pm31 °FClear.No wind89%30.27 "Hg10 mi
9:52 pm33 °FClear.No wind88%30.27 "Hg10 mi
8:52 pm35 °FClear.5 mph85%30.27 "Hg10 mi
7:52 pm39 °FSunny.6 mph79%30.24 "Hg10 mi
Weather by CustomWeather, © 2019

See weather overview